Wind_Speed
37 33 31 28 25 23 20 14 3 8 12 2 2 4 5 4 4 5 4 4 3 4 3 3 3 4 1 1 1 2 1 4 1 0 5 0 2 3 3 4 2 0 2 4
35 33 30 28 28 25 23 12 5 9 14 4 1 2 2 3 3 3 3 3 2 2 4 3 2 3 1 1 2 5 4 1 2 5 4 2 6 2 4 5 2 5 4 4
35 33 31 29 28 27 21 7 2 5 4 4 6 5 2 4 4 5 5 4 4 4 3 5 5 3 0 1 3 4 2 2 4 5 2 1 2 2 1 3 3 2 5 3
35 32 31 30 29 29 20 5 2 5 3 3 4 2 5 5 4 4 5 3 4 6 4 3 3 2 2 3 5 3 4 2 2 4 4 2 4 7 6 8 5 6 3 3
36 33 32 29 28 28 19 8 7 5 4 11 7 1 5 6 3 4 3 5 4 4 6 7 8 6 4 5 2 2 2 1 3 4 3 3 5 11 9 5 4 7 4 3
34 31 30 30 29 30 11 8 12 7 1 3 4 5 5 7 12 2 3 9 6 4 4 5 3 7 7 8 8 4 4 5 3 4 4 7 7 4 5 4 1 4 4 2
31 31 30 28 27 29 12 13 14 5 1 2 5 5 4 4 5 7 3 9 6 8 17 16 12 13 10 7 5 5 6 5 2 2 4 2 4 3 2 4 3 4 4 2
27 27 27 26 25 26 19 17 11 6 2 3 3 7 6 12 9 5 5 3 8 22 9 4 4 4 3 1 2 3 2 5 2 2 2 7 1 1 4 3 4 8 6 4
21 22 24 24 24 22 21 18 16 6 12 4 6 5 8 5 4 3 3 9 22 12 4 3 5 4 4 3 2 5 5 4 4 3 3 5 2 4 5 5 4 14 9 3
14 15 17 21 22 20 21 17 16 10 7 6 8 4 5 7 6 4 6 8 5 3 2 3 3 4 3 5 6 5 3 1 4 3 3 8 5 5 7 2 4 15 10 5
11 11 14 15 18 22 21 18 17 11 5 7 6 6 7 7 7 5 11 6 1 3 2 3 3 3 5 3 4 6 6 6 4 3 1 8 9 4 6 5 11 9 7 6
12 11 11 14 16 19 21 20 16 13 8 7 10 10 8 6 6 6 18 2 5 8 4 1 3 1 1 3 2 2 3 6 5 8 5 2 12 3 6 8 5 5 5 5
13 12 12 13 16 18 21 17 15 15 10 9 7 8 8 6 8 9 6 6 7 7 6 8 2 2 3 3 4 2 3 6 3 2 3 8 10 11 11 7 5 4 4 2
14 12 10 10 12 14 16 19 18 13 9 6 3 5 5 3 3 8 5 3 11 12 7 4 3 3 7 3 3 4 5 5 4 2 2 5 14 17 13 9 6 4 2 4
13 12 11 11 12 13 13 16 18 17 9 5 8 10 5 2 3 3 5 9 12 9 4 3 2 4 4 1 2 3 10 6 5 5 11 7 4 22 16 11 6 5 5 7
12 11 12 11 13 16 16 6 6 9 10 6 2 4 6 6 5 7 10 10 8 4 4 3 3 3 1 2 3 8 11 13 10 2 4 13 4 13 15 11 8 6 8 9
13 12 12 10 9 9 6 7 9 11 9 5 5 3 3 5 5 6 7 7 5 4 5 3 4 3 3 2 3 5 9 12 11 9 8 9 13 9 13 9 7 8 9 11
15 14 14 15 14 14 14 12 11 11 7 5 4 2 4 4 3 3 3 3 3 3 2 3 2 3 3 4 15 8 8 8 9 13 12 5 11 9 12 10 9 7 7 10
14 13 13 13 7 7 11 12 9 6 5 5 3 3 3 5 4 3 3 3 3 1 1 1 3 1 5 7 7 11 13 11 10 14 9 6 9 12 12 10 11 8 7 9
12 10 5 5 6 10 7 3 3 2 4 4 5 5 2 4 3 2 2 3 1 1 3 3 2 4 20 21 14 8 7 14 11 15 12 13 12 11 11 10 8 8 6 9
7 3 4 11 8 4 4 4 6 4 3 3 4 4 5 4 3 3 2 2 1 1 2 2 2 3 4 6 8 16 16 14 15 14 9 8 7 10 12 11 8 7 7 10
5 10 11 5 3 4 6 2 1 2 1 3 4 5 4 5 3 4 4 2 2 3 6 0 3 4 8 8 3 7 16 17 16 16 10 7 6 8 9 7 8 9 10 12
6 4 3 3 4 7 3 2 1 1 5 6 6 4 3 4 2 5 2 2 2 6 2 3 4 6 7 5 4 7 12 16 16 13 9 7 7 8 7 8 11 12 14 14
3 4 5 3 2 0 2 3 3 1 3 12 13 7 3 2 3 3 3 2 2 0 1 4 4 11 9 5 8 10 13 14 13 11 9 7 7 9 10 9 13 14 15 16
3 2 1 1 1 0 2 1 2 2 8 15 9 4 2 2 3 1 2 1 2 4 4 3 7 11 6 8 11 13 12 12 11 10 9 9 9 10 12 15 15 15 15 15
2 2 2 2 1 1 2 1 2 4 15 10 2 3 1 2 2 2 4 2 3 3 4 7 12 6 7 9 11 11 11 11 10 10 10 11 12 13 15 17 16 15 14 14
0 1 3 2 1 2 4 4 2 9 10 2 1 2 4 3 1 2 4 4 3 7 12 13 10 6 4 7 9 9 9 11 12 13 13 13 15 16 17 17 17 16 15 13
Wind_Direction
183 183 182 179 183 175 177 177 120 170 163 98 6 141 164 135 130 102 88 95 107 145 138 104 132 169 38 7 172 95 57 130 288 328 288 23 90 118 105 120 228 125 152 269
184 183 181 181 181 179 175 157 116 165 173 138 327 306 91 119 125 114 105 105 97 70 124 119 105 122 4 163 91 158 183 49 18 339 5 26 72 32 91 95 88 209 148 268
185 184 183 182 181 180 177 156 95 92 178 133 144 139 147 112 82 101 109 120 99 97 109 33 153 139 17 36 108 104 104 120 174 203 202 156 242 202 157 150 158 209 234 308
184 184 184 184 182 181 176 154 136 157 180 216 175 127 143 132 133 109 137 71 146 149 145 102 142 133 123 45 138 82 107 217 196 251 233 229 236 244 221 203 199 188 203 271
183 184 185 185 186 184 183 148 140 123 99 149 121 35 196 145 125 129 175 135 152 149 159 184 193 141 186 194 180 111 36 235 29 303 55 350 259 249 228 201 223 251 211 252
179 182 184 184 186 185 178 148 144 150 51 105 104 198 175 188 130 80 112 157 119 131 183 166 148 180 175 171 152 149 124 131 101 260 358 315 292 257 206 156 162 154 210 124
172 179 183 185 187 192 181 155 153 143 202 126 180 168 165 148 188 143 126 145 121 144 130 105 92 75 88 119 86 131 132 110 98 264 12 357 248 328 195 146 152 143 107 126
169 173 179 183 185 189 192 189 177 156 107 148 142 141 122 106 104 80 107 112 143 148 131 71 50 350 23 37 59 78 123 124 87 137 222 293 322 195 142 159 258 178 174 193
168 182 182 180 185 184 189 192 194 168 132 226 131 139 164 141 122 67 91 123 147 157 86 84 143 206 199 188 97 61 72 65 119 80 142 242 234 151 126 128 274 184 189 229
173 181 188 194 193 186 188 185 185 175 113 145 158 153 170 148 127 109 140 141 152 148 98 97 153 232 192 182 177 167 132 85 170 136 238 285 229 156 135 121 244 180 198 236
161 171 173 178 187 191 193 191 197 180 121 134 170 160 151 154 168 141 151 95 231 69 108 133 208 158 218 168 169 171 163 155 193 144 180 280 161 121 177 169 144 186 206 226
136 147 158 171 170 180 179 179 177 189 170 129 127 123 134 159 152 145 164 152 162 160 92 68 104 166 52 149 230 96 205 188 180 186 212 222 188 221 181 171 165 198 224 223
117 117 137 158 176 189 191 182 169 169 122 118 131 103 103 126 168 166 157 176 163 159 131 147 146 138 131 161 232 202 232 188 218 108 208 203 198 194 190 190 204 210 235 195
122 119 121 139 156 170 184 191 187 181 133 123 129 132 116 69 150 179 166 186 170 155 144 106 126 147 198 210 188 174 207 148 187 250 245 208 229 216 206 206 214 204 176 156
122 125 115 113 131 142 160 174 168 179 179 136 130 128 107 92 55 111 154 164 167 153 128 97 200 148 152 92 63 251 192 186 173 226 207 191 228 217 208 204 213 208 180 185
114 115 114 118 129 133 134 112 141 148 143 109 87 109 108 125 140 137 144 154 156 142 113 116 150 168 196 131 207 257 228 223 235 289 220 206 223 181 198 203 202 200 186 193
111 105 106 113 131 149 101 109 124 133 134 97 94 62 123 138 135 114 104 128 125 130 126 137 147 169 219 130 206 249 223 226 228 228 186 170 181 194 198 200 190 193 184 185
113 105 99 99 103 104 86 98 124 122 105 90 103 91 126 130 68 71 74 65 80 60 101 134 150 169 213 253 237 256 228 217 209 196 200 201 191 188 188 192 193 186 202 193
124 113 104 99 76 64 81 90 112 112 88 105 100 132 145 151 88 83 79 76 48 6 73 213 170 243 225 238 231 226 217 209 204 192 205 194 186 182 188 196 191 209 205 210
136 124 69 71 70 98 98 69 87 82 52 64 82 117 119 140 98 66 83 51 114 57 255 163 220 261 252 258 261 250 235 217 204 191 193 198 197 201 201 207 206 203 213 203
128 74 65 112 104 76 58 62 45 17 50 60 110 132 140 155 121 147 150 164 116 28 278 159 267 264 255 294 280 236 231 211 215 219 232 221 234 214 201 196 193 204 205 179
99 107 112 104 78 69 72 360 28 39 159 136 121 121 106 135 139 118 174 113 177 229 159 116 265 256 277 299 278 206 206 207 210 217 230 231 208 194 189 184 186 191 176 166
84 66 70 35 34 48 105 145 322 351 180 161 145 124 118 131 119 86 162 170 214 140 197 250 239 279 285 307 192 174 176 192 202 209 212 199 176 168 175 186 176 171 164 158
53 47 28 77 352 291 177 169 147 103 184 156 151 146 120 137 140 143 160 223 122 246 236 246 262 300 270 250 184 185 178 182 193 195 188 179 170 168 168 165 168 167 164 162
61 48 100 160 83 89 50 164 36 93 155 151 143 102 147 115 101 192 82 82 236 213 235 239 297 316 250 206 184 182 189 190 192 191 187 176 171 172 167 161 166 164 166 162
81 105 90 160 40 91 122 26 62 73 149 150 142 122 89 212 141 152 188 169 233 245 222 297 320 298 234 198 187 188 197 204 202 195 182 177 176 173 170 166 169 167 167 170
51 26 211 181 65 90 84 99 115 155 166 108 113 165 205 125 149 215 186 212 238 322 316 327 321 303 243 199 193 196 202 203 203 195 189 180 179 179 180 178 173 171 169 171
Height
1469 1476 1484 1488 1494 1499 1506 1509 1513 1513 1515 1522 1525 1527 1524 1528 1530 1532 1536 1540 1544 1547 1550 1555 1559 1563 1563 1564 1564 1567 1569 1576 1578 1573 1570 1567 1569 1574 1578 1585 1583 1589 1592 1583
1467 1474 1480 1486 1494 1496 1505 1508 1510 1512 1515 1527 1530 1526 1525 1527 1530 1532 1537 1542 1543 1546 1552 1558 1562 1564 1565 1564 1565 1566 1568 1576 1580 1575 1573 1570 1575 1575 1575 1582 1588 1586 1597 1578
1466 1473 1480 1485 1491 1499 1506 1507 1511 1511 1517 1520 1522 1526 1527 1530 1530 1532 1536 1541 1543 1547 1552 1557 1565 1565 1566 1565 1564 1565 1567 1577 1573 1580 1571 1576 1576 1578 1577 1581 1590 1582 1580 1575
1466 1473 1479 1486 1491 1496 1500 1501 1504 1509 1519 1520 1521 1522 1525 1529 1532 1533 1536 1541 1543 1547 1555 1558 1563 1565 1566 1566 1566 1566 1568 1573 1576 1574 1575 1576 1576 1577 1578 1581 1576 1577 1572 1575
1464 1470 1477 1482 1487 1492 1497 1499 1503 1509 1513 1515 1520 1523 1527 1527 1531 1533 1536 1540 1544 1545 1552 1552 1559 1560 1564 1564 1568 1568 1569 1575 1577 1575 1574 1578 1578 1572 1572 1573 1573 1572 1570 1572
1462 1469 1476 1481 1486 1492 1493 1496 1500 1505 1516 1518 1521 1524 1525 1526 1527 1535 1535 1537 1543 1547 1548 1549 1551 1553 1554 1557 1562 1569 1572 1578 1584 1578 1579 1578 1573 1564 1565 1565 1566 1566 1568 1572
1461 1469 1475 1479 1484 1488 1493 1496 1500 1504 1519 1517 1518 1520 1523 1526 1528 1533 1536 1538 1541 1548 1549 1551 1554 1555 1557 1560 1562 1563 1572 1578 1586 1590 1584 1606 1559 1558 1558 1561 1566 1567 1568 1570
1463 1469 1474 1478 1483 1488 1494 1498 1501 1503 1515 1515 1517 1520 1523 1526 1529 1534 1537 1540 1541 1545 1549 1557 1564 1571 1562 1562 1565 1567 1567 1575 1593 1606 1596 1571 1556 1561 1561 1559 1562 1565 1566 1567
1461 1468 1473 1478 1482 1487 1493 1497 1500 1504 1507 1516 1515 1520 1522 1527 1533 1537 1540 1543 1542 1546 1552 1561 1579 1576 1562 1567 1568 1568 1570 1573 1581 1609 1610 1593 1554 1556 1557 1558 1565 1559 1562 1565
1460 1467 1472 1476 1481 1487 1492 1496 1500 1504 1506 1513 1516 1518 1521 1523 1527 1535 1539 1541 1545 1547 1554 1568 1574 1569 1560 1566 1565 1570 1573 1578 1583 1596 1608 1575 1555 1555 1556 1563 1561 1557 1557 1561
1466 1470 1471 1475 1481 1486 1491 1495 1498 1502 1507 1514 1515 1517 1519 1521 1524 1529 1535 1542 1546 1548 1555 1562 1567 1569 1559 1557 1558 1562 1566 1577 1581 1583 1593 1582 1552 1557 1559 1553 1553 1555 1555 1557
1468 1470 1473 1476 1479 1485 1489 1494 1498 1504 1509 1516 1517 1517 1518 1520 1523 1526 1530 1534 1534 1537 1548 1555 1559 1562 1564 1557 1562 1555 1563 1557 1563 1563 1559 1550 1550 1550 1549 1550 1551 1553 1554 1555
1469 1471 1473 1476 1482 1486 1489 1493 1500 1504 1509 1517 1521 1518 1520 1521 1524 1526 1528 1532 1532 1534 1536 1542 1550 1557 1555 1561 1559 1552 1550 1549 1553 1552 1549 1547 1547 1547 1548 1549 1550 1551 1552 1552
1469 1474 1478 1480 1482 1486 1489 1493 1498 1504 1507 1515 1520 1518 1521 1523 1524 1525 1526 1528 1530 1533 1537 1539 1546 1553 1550 1555 1550 1550 1546 1547 1547 1549 1548 1548 1547 1547 1546 1547 1549 1549 1549 1551
1474 1478 1480 1481 1483 1485 1491 1494 1498 1500 1506 1511 1516 1519 1522 1522 1524 1524 1527 1528 1530 1534 1538 1540 1547 1546 1549 1549 1550 1549 1536 1536 1542 1541 1533 1536 1538 1540 1544 1543 1548 1549 1548 1551
1478 1480 1481 1484 1487 1490 1492 1497 1501 1501 1501 1506 1519 1522 1522 1524 1526 1527 1528 1529 1532 1535 1537 1540 1542 1544 1546 1554 1550 1531 1530 1530 1531 1533 1533 1534 1536 1539 1541 1543 1545 1548 1548 1549
1480 1482 1484 1488 1491 1491 1492 1496 1499 1501 1504 1506 1519 1524 1525 1526 1526 1527 1528 1530 1532 1535 1536 1540 1541 1542 1544 1546 1548 1527 1526 1528 1528 1530 1532 1535 1536 1538 1541 1542 1543 1547 1547 1547
1483 1487 1490 1489 1490 1493 1494 1497 1500 1503 1506 1509 1520 1525 1528 1528 1529 1531 1531 1532 1533 1537 1538 1539 1539 1541 1542 1540 1523 1523 1524 1525 1527 1529 1530 1531 1533 1537 1540 1541 1542 1544 1547 1548
1488 1490 1491 1493 1494 1495 1499 1501 1503 1506 1510 1512 1519 1524 1525 1529 1531 1533 1535 1535 1539 1540 1538 1539 1541 1540 1537 1520 1519 1518 1520 1523 1524 1527 1530 1532 1533 1534 1537 1540 1543 1543 1543 1546
1492 1493 1492 1496 1498 1499 1503 1506 1508 1510 1511 1515 1518 1522 1525 1528 1531 1534 1536 1536 1541 1547 1540 1539 1539 1529 1521 1515 1516 1518 1520 1521 1522 1525 1529 1532 1533 1533 1535 1538 1540 1540 1541 1543
1493 1494 1498 1500 1500 1503 1506 1507 1510 1515 1517 1517 1520 1522 1525 1529 1530 1533 1537 1540 1541 1546 1541 1543 1535 1526 1514 1512 1510 1513 1517 1518 1521 1525 1528 1529 1530 1531 1534 1536 1537 1539 1541 1542
1496 1497 1500 1502 1503 1505 1509 1516 1517 1517 1519 1519 1520 1522 1523 1527 1530 1532 1537 1539 1540 1540 1539 1540 1532 1518 1511 1511 1509 1510 1513 1517 1520 1524 1526 1527 1527 1530 1532 1533 1536 1539 1541 1542
1497 1498 1500 1503 1508 1515 1513 1524 1520 1521 1518 1519 1519 1523 1526 1530 1530 1532 1536 1536 1538 1536 1534 1532 1523 1513 1510 1509 1510 1511 1513 1516 1520 1523 1525 1526 1526 1528 1531 1533 1536 1539 1541 1543
1500 1502 1509 1511 1515 1513 1513 1515 1516 1517 1517 1518 1521 1524 1525 1528 1530 1531 1532 1536 1536 1533 1532 1529 1515 1512 1510 1509 1511 1514 1515 1517 1520 1522 1524 1525 1526 1528 1531 1534 1537 1540 1540 1543
1504 1506 1513 1511 1512 1513 1514 1514 1515 1516 1517 1520 1522 1524 1525 1527 1530 1531 1532 1535 1534 1534 1529 1519 1511 1510 1510 1509 1511 1514 1517 1518 1519 1521 1523 1525 1527 1530 1532 1534 1538 1540 1541 1544
1507 1508 1510 1511 1512 1513 1514 1514 1515 1516 1518 1522 1523 1524 1527 1526 1528 1529 1532 1529 1528 1521 1515 1512 1510 1509 1509 1510 1511 1514 1516 1518 1520 1522 1524 1526 1528 1531 1534 1535 1538 1540 1542 1545
1508 1510 1511 1512 1513 1513 1515 1516 1517 1519 1521 1522 1523 1523 1523 1526 1526 1525 1523 1523 1517 1515 1514 1512 1510 1510 1509 1509 1511 1513 1515 1518 1520 1523 1525 1526 1529 1532 1534 1536 1537 1540 1543 1546